Weather History for Chamberlain, SD

Change the Weather History Date:

Sunday, May 12, 2013

  Actual Average Record
Temperature  
Mean Temperature 50 °F -  
Max Temperature 71 °F 66 °F 84 °F (2007)
Min Temperature 30 °F 42 °F 30 °F (2006)
Degree Days  
Heating Degree Days 14    
Moisture  
Dew Point 23 °F    
Average Humidity 35    
Maximum Humidity 66    
Minimum Humidity 17    
Precipitation  
Precipitation 0.00 in - - ()
Sea Level Pressure  
Sea Level Pressure 30.16 in    
Wind  
Wind Speed 8 mph (SE)    
Max Wind Speed 15 mph    
Max Gust Speed 18 mph    
Averages and records for this station are not official NWS values.
T = Trace of Precipitation, MM = Missing Value Source: NWS Daily Summary

Daily Weather History Graph

Daily Weather History Graph

Search for Another Location

Airport:

Trip Planner

Search our weather history database for the weather conditions in past years. The results will help you decide how hot, cold, wet, or windy it might be!

Date:

Astronomy

May. 12, 2013 Rise Set
Actual Time 6:14 AM CDT 8:53 PM CDT
Civil Twilight 5:42 AM CDT 9:26 PM CDT
Nautical Twilight 5:00 AM CDT 10:07 PM CDT
Astronomical Twilight 4:13 AM CDT 10:54 PM CDT
Moon 8:10 AM CDT (5/12) 11:22 PM CDT (5/12)
Length of Visible Light 15h 44m
Length of Day
14h 38m
Waxing Crescent, 7% of the Moon is Illuminated
May 12
Waxing Crescent
May 17
First Quarter
May 24
Full
May 31
Last Quarter
Jun 8
New

Hourly Weather History & Observations

Time (CDT) Temp. Windchill Dew Point Humidity Pressure Visibility Wind Dir Wind Speed Gust Speed Precip Events Conditions
12:52 AM 37.0 °F 31.6 °F 18.0 °F 46% 30.27 in - East 6.9 mph - N/A   Unknown
1:52 AM 37.9 °F 32.7 °F 21.9 °F 53% 30.28 in - ESE 6.9 mph - N/A   Unknown
2:52 AM 34.0 °F 29.8 °F 21.9 °F 61% 30.29 in - South 4.6 mph - N/A   Unknown
3:52 AM 36.0 °F 31.1 °F 18.0 °F 48% 30.27 in - SE 5.8 mph - N/A   Unknown
4:52 AM 35.1 °F 31.0 °F 21.0 °F 57% 30.27 in - SE 4.6 mph - N/A   Unknown
5:52 AM 30.0 °F 22.4 °F 19.9 °F 66% 30.26 in - ESE 8.1 mph - N/A   Unknown
6:52 AM 32.0 °F 25.6 °F 21.9 °F 66% 30.26 in - ESE 6.9 mph - N/A   Unknown
7:52 AM 41.0 °F 35.8 °F 24.1 °F 51% 30.24 in - SE 8.1 mph - N/A   Unknown
8:52 AM 48.9 °F - 19.9 °F 32% 30.24 in - SE 12.7 mph - N/A   Unknown
9:52 AM 54.0 °F - 17.1 °F 23% 30.23 in - SSE 12.7 mph - N/A   Unknown
10:52 AM 57.0 °F - 17.1 °F 21% 30.22 in - SE 11.5 mph - N/A   Unknown
11:52 AM 60.1 °F - 17.1 °F 19% 30.21 in - SSE 10.4 mph - N/A   Unknown
12:52 PM 62.1 °F - 18.0 °F 18% 30.18 in - SE 15.0 mph 18.4 mph N/A   Unknown
1:52 PM 64.0 °F - 19.9 °F 18% 30.16 in - SSE 12.7 mph 18.4 mph N/A   Unknown
2:52 PM 66.0 °F - 21.9 °F 19% 30.14 in - SSE 8.1 mph - N/A   Unknown
3:52 PM 68.0 °F - 24.1 °F 19% 30.11 in - Calm Calm - N/A   Unknown
4:52 PM 69.1 °F - 24.1 °F 18% 30.09 in - Variable 4.6 mph - N/A   Unknown
5:52 PM 71.1 °F - 24.1 °F 17% 30.07 in - South 8.1 mph - N/A   Unknown
6:52 PM 70.0 °F - 25.0 °F 18% 30.04 in - ESE 8.1 mph - N/A   Unknown
7:52 PM 66.9 °F - 27.0 °F 22% 30.01 in - SE 12.7 mph - N/A   Unknown
8:52 PM 60.1 °F - 30.9 °F 33% 30.01 in - SE 9.2 mph - N/A   Unknown
9:52 PM 55.9 °F - 30.9 °F 39% 30.02 in - SE 11.5 mph - N/A   Unknown
10:52 PM 55.0 °F - 30.9 °F 40% 30.02 in - SE 10.4 mph - N/A   Unknown
11:52 PM 55.9 °F - 28.9 °F 36% 30.00 in - SE 13.8 mph - N/A   Unknown